GEFSMA_con_prob3kmehi_294.txt.gz
EHI
3 4 4 2 1 2 4 4 2 2 2 1 0 0 0 0 0 1 2 5 6 6 6 6 5 2 0 0 0 1 2 3 3 1 0 0 0 0 0 0 0 0 0
6 6 5 4 2 3 4 4 3 4 4 3 2 0 0 0 1 1 2 5 6 7 7 7 6 3 1 0 1 2 2 3 3 2 1 0 0 0 0 0 0 0 0
8 6 5 4 3 4 5 6 6 6 6 6 4 2 2 3 3 3 4 5 6 7 8 9 8 6 3 2 2 3 2 2 3 3 2 1 0 0 0 0 0 0 0
9 7 5 5 4 5 7 7 7 7 6 6 6 6 7 8 8 7 7 9 10 9 10 11 12 10 6 4 3 3 2 1 3 4 3 2 1 1 1 0 0 0 0
10 9 9 7 7 8 8 9 9 9 8 7 6 7 10 12 13 12 11 13 16 16 16 16 16 14 10 7 6 5 4 4 4 4 3 3 3 2 1 0 0 0 0
11 13 13 12 11 11 10 11 14 15 15 13 9 8 10 14 16 17 16 16 19 21 21 21 20 17 14 12 11 10 9 8 8 6 5 5 4 2 1 1 1 1 1
13 14 15 16 15 14 12 14 16 18 19 18 15 11 11 14 17 19 19 18 18 19 20 22 22 20 19 17 15 13 12 13 13 11 8 6 4 3 3 3 3 3 2
15 14 16 18 17 16 16 17 17 17 18 21 21 18 14 14 16 17 18 17 15 15 17 20 23 24 23 21 17 14 14 15 16 16 13 9 6 5 6 5 5 4 2
17 18 20 20 18 18 18 18 19 19 21 24 25 23 18 16 15 15 15 15 15 14 14 16 21 26 26 23 20 17 16 15 15 16 15 12 8 6 6 5 4 3 1
21 23 24 23 21 19 18 18 19 23 25 27 27 25 23 21 18 15 13 15 17 16 14 15 20 24 26 24 22 20 17 14 12 13 13 11 8 6 5 4 3 2 1
24 25 25 25 23 20 18 17 18 21 24 26 25 24 23 21 18 13 11 11 14 17 18 19 21 23 24 24 22 20 17 13 10 9 9 7 7 6 5 4 3 1 0
27 25 25 26 24 20 19 19 19 20 21 23 24 24 22 18 15 12 8 6 8 14 19 22 23 23 22 23 21 17 14 9 6 6 6 5 5 5 5 4 2 1 0
26 25 25 27 25 21 21 22 21 20 20 21 22 23 21 17 14 13 10 6 7 10 16 20 22 21 20 19 18 13 8 5 3 2 3 3 3 3 3 2 1 0 0
25 26 27 28 26 23 22 23 22 20 19 19 20 21 21 18 16 16 14 11 10 10 12 16 19 21 19 16 13 10 8 5 1 0 1 1 1 1 1 1 0 0 0
26 28 29 29 27 24 24 24 23 21 20 20 20 22 22 19 17 17 16 15 12 10 10 12 16 19 18 14 10 11 12 7 1 0 0 0 0 0 0 0 0 0 0
25 28 30 29 27 25 25 25 23 21 21 20 20 22 22 20 19 19 19 17 14 12 12 13 15 17 16 12 10 14 16 10 3 1 0 0 0 0 0 0 0 0 0
23 25 28 27 26 25 25 25 23 21 22 21 19 20 21 19 19 22 23 21 19 16 16 15 14 15 15 14 14 17 17 13 7 2 0 0 0 0 0 0 0 0 0
23 23 23 24 23 22 22 23 22 21 22 22 20 20 21 20 20 22 25 25 22 19 17 16 15 16 17 17 18 20 18 13 9 4 1 0 0 0 0 0 0 0 0
24 22 23 23 22 20 20 21 22 22 22 23 22 22 23 23 23 23 25 25 23 19 18 17 17 20 20 19 19 19 16 13 9 5 1 0 0 0 0 0 0 0 0
23 22 23 24 22 19 19 21 22 23 22 23 22 22 22 23 23 22 22 23 21 18 17 17 20 23 22 20 19 17 15 13 10 6 3 2 1 0 0 0 0 0 0
22 23 24 24 21 17 16 17 20 22 22 22 20 19 19 20 19 17 16 18 17 16 16 17 19 22 22 20 17 15 13 12 11 8 6 5 3 2 1 1 0 0 0
24 26 27 25 21 15 10 11 14 18 20 21 20 19 18 16 16 15 14 13 12 12 14 16 18 20 20 19 16 14 13 12 11 9 6 5 5 4 3 2 0 0 0
26 28 29 26 21 14 9 7 9 14 18 19 19 20 18 16 17 18 16 12 10 9 10 13 16 17 17 16 15 14 13 13 11 9 5 4 4 4 3 2 1 0 0
27 27 27 25 20 15 10 7 7 12 17 19 19 19 19 18 18 19 18 15 13 10 8 8 10 10 10 11 12 12 12 11 10 9 6 4 3 3 3 3 2 1 0
32 30 28 25 22 17 11 6 6 12 18 20 19 18 17 17 16 16 18 19 19 15 10 6 4 3 3 5 7 9 10 11 10 8 7 5 3 3 3 4 2 1 0
37 34 30 27 25 20 12 5 6 13 19 20 20 17 15 14 14 14 17 21 22 19 13 7 4 1 1 3 5 7 10 12 10 8 7 6 4 3 2 3 2 0 0

GEFSMA_con_prob3kmehi_300.txt.gz
EHI
0 1 1 1 0 0 0 1 2 2 1 0 0 0 0 0 0 0 1 3 5 7 9 9 9 10 9 7 6 6 5 4 6 5 2 0 0 0 0 0 0 0 0
0 0 0 0 0 0 0 0 1 1 0 0 0 0 0 0 0 0 0 2 4 7 10 10 10 10 9 8 7 6 5 5 6 5 3 1 0 0 0 0 0 0 0
0 0 0 1 2 1 1 0 0 0 0 0 0 0 0 0 0 0 0 1 3 6 9 12 12 11 10 9 7 6 6 6 6 4 3 1 0 0 0 0 0 0 0
0 0 1 2 3 3 2 1 1 1 1 0 0 0 0 0 0 0 0 1 2 4 8 12 13 12 13 12 9 8 8 8 7 5 4 3 1 0 0 0 0 0 0
0 0 2 3 3 3 3 3 2 3 3 2 0 0 0 0 0 0 0 1 2 3 6 10 12 13 16 15 13 11 11 11 11 9 8 5 2 1 1 1 1 0 0
2 2 2 2 3 3 3 3 3 4 4 4 2 0 0 0 1 1 1 2 2 3 5 7 9 12 16 18 16 15 15 15 15 14 13 9 5 3 2 2 1 0 0
4 5 4 4 3 3 3 2 2 3 4 4 3 1 0 0 1 2 2 2 3 3 4 5 7 10 14 16 17 18 19 18 15 15 14 10 7 5 3 1 1 0 0
6 7 7 7 6 5 3 2 3 3 3 4 5 3 1 1 1 1 1 1 1 2 3 4 7 10 11 12 14 18 20 17 14 12 11 9 7 6 4 2 1 0 0
7 7 8 8 8 8 6 5 6 6 6 7 6 4 3 2 1 1 0 0 0 1 2 3 6 7 8 7 8 10 14 14 12 11 9 8 7 6 5 4 2 1 0
7 8 8 9 9 9 9 8 9 9 10 11 9 6 4 3 3 2 1 0 0 0 1 1 3 4 4 4 4 5 7 8 9 9 9 8 7 6 5 4 3 2 1
6 8 10 11 11 10 10 10 10 10 12 13 12 9 6 5 3 3 2 1 0 0 0 0 1 2 2 3 3 5 6 5 5 6 6 6 5 4 4 3 3 3 3
5 7 11 13 13 12 11 10 10 11 12 13 13 10 8 6 4 2 2 1 0 0 0 0 0 0 2 2 3 6 7 5 3 3 3 3 3 3 3 3 3 3 3
4 6 9 12 12 12 11 11 10 11 12 13 13 12 10 7 4 3 3 2 1 0 0 0 0 0 1 2 3 6 7 4 2 1 1 2 2 1 1 2 2 2 2
5 6 8 10 10 10 11 12 11 10 10 12 12 12 10 7 5 4 3 3 2 1 0 0 0 0 1 1 3 5 4 2 1 1 0 1 1 0 0 1 1 1 1
6 7 8 9 8 8 10 12 11 10 10 10 10 10 9 7 5 4 3 3 3 1 1 1 1 1 0 1 2 3 2 1 1 1 0 0 0 0 0 0 0 0 1
7 7 7 6 6 6 8 10 10 10 10 9 8 8 8 7 6 4 3 3 3 3 3 4 2 1 0 0 1 1 1 2 3 2 1 0 0 0 0 0 0 0 0
7 7 6 5 4 4 6 7 8 9 8 7 6 6 6 6 5 4 3 3 3 4 5 5 3 1 0 0 0 0 1 2 4 3 1 0 0 0 0 0 0 0 0
8 8 7 6 5 5 6 6 7 7 6 4 4 4 5 5 4 3 3 3 3 4 6 5 3 1 0 0 0 0 0 1 1 1 0 0 0 0 0 0 0 0 0
10 10 9 8 8 8 8 7 7 7 5 4 4 4 4 5 4 3 4 5 5 6 7 7 4 1 0 0 0 0 0 0 0 0 0 0 0 0 0 0 0 0 0
12 11 11 10 10 10 9 9 9 8 6 6 6 6 6 6 6 5 6 8 8 9 9 8 6 2 0 0 0 0 0 0 0 0 0 0 0 0 0 0 0 0 0
13 12 12 12 10 9 10 10 10 9 8 8 7 7 8 9 8 6 7 9 9 10 9 8 7 4 1 0 0 0 0 0 0 0 0 0 0 0 0 0 0 0 0
13 13 13 12 10 9 8 9 11 12 11 9 8 7 9 9 8 7 7 8 8 9 9 8 7 5 2 1 0 0 0 0 0 0 0 0 0 0 0 0 0 0 0
14 15 15 12 10 8 7 6 8 12 13 11 10 10 10 9 9 8 8 7 7 8 8 8 8 6 3 1 0 0 0 0 0 0 0 0 0 0 0 0 0 0 0
15 16 15 12 9 7 6 5 5 8 10 11 10 11 10 9 9 9 8 7 7 7 7 7 7 5 3 1 0 0 0 0 0 0 0 0 0 0 0 0 0 0 0
16 16 15 11 7 6 5 3 3 5 7 8 8 8 8 7 6 6 7 8 8 8 8 6 5 3 1 0 0 0 0 0 0 0 0 0 0 0 0 0 0 0 0
16 17 15 10 7 6 5 2 2 5 6 6 6 6 5 5 5 4 6 8 9 9 9 7 3 1 0 0 0 0 0 0 0 0 0 0 0 0 0 0 0 0 0

GEFSMA_con_prob3kmehi_306.txt.gz
EHI
0 0 1 2 2 1 0 0 1 1 1 0 0 0 0 0 0 0 0 0 0 1 2 3 3 4 5 5 6 6 6 5 4 4 3 2 1 0 0 0 0 0 0
0 1 2 2 1 0 0 0 0 0 0 0 0 0 0 0 0 0 0 0 0 1 2 3 3 4 4 4 5 6 6 6 6 5 4 3 1 0 0 0 0 0 0
0 1 2 2 1 0 0 0 0 0 0 0 0 0 0 0 0 0 0 0 0 0 1 1 2 3 3 3 4 6 7 8 8 7 6 5 2 1 0 0 0 0 0
0 0 1 1 0 0 0 0 0 0 0 0 1 0 0 0 0 0 0 0 0 0 0 0 1 2 2 2 3 6 8 9 9 9 7 5 3 2 1 0 0 0 0
1 1 1 0 0 0 0 0 0 0 1 1 1 0 0 0 0 0 0 0 0 0 0 0 1 2 3 3 4 7 9 10 9 9 7 6 5 4 2 1 0 0 0
2 3 3 2 2 2 1 1 2 2 2 2 1 1 0 0 0 0 0 0 0 0 0 0 1 3 4 4 6 8 10 10 10 8 7 6 6 5 4 3 1 1 0
3 3 4 4 4 3 3 3 3 3 4 3 3 2 1 0 0 0 0 0 0 0 0 0 0 2 3 4 5 7 10 11 10 9 8 7 6 5 5 4 3 2 1
2 3 4 4 4 4 3 3 4 4 4 3 3 3 2 1 1 1 0 0 1 1 1 0 0 0 1 1 2 4 7 10 10 10 10 9 7 6 4 3 3 3 3
2 3 4 4 5 6 5 5 6 6 5 5 4 3 3 3 2 2 1 1 1 2 1 0 0 1 1 1 0 1 3 5 8 10 11 10 9 7 5 4 3 3 3
2 4 5 6 8 8 8 8 9 9 8 8 6 4 3 3 3 3 3 1 1 1 1 0 1 2 2 1 0 0 0 1 4 6 9 9 8 8 6 5 4 3 3
1 2 4 7 9 10 10 10 10 10 10 9 8 6 5 4 4 4 4 2 1 0 0 0 1 1 2 1 0 0 0 0 1 3 5 6 6 8 7 5 4 3 4
0 0 2 5 8 9 9 9 9 10 10 10 9 8 8 7 5 4 4 3 1 0 0 0 0 0 0 0 0 0 0 0 0 1 2 2 3 6 6 5 3 3 4
1 1 2 3 4 6 6 7 8 9 8 8 9 9 9 8 6 4 4 3 2 1 1 0 0 0 0 0 0 0 0 0 0 0 0 0 1 2 4 3 2 2 2
2 1 1 1 1 2 3 4 6 7 6 6 7 7 7 6 5 4 4 4 4 3 2 1 0 0 0 0 0 0 0 0 0 0 0 0 0 0 1 1 1 0 1
1 1 0 0 0 0 0 2 3 5 6 6 6 6 6 5 4 3 3 4 4 4 3 2 1 1 0 0 0 0 0 0 0 0 0 0 0 0 0 0 0 0 0
2 2 2 1 0 0 1 1 2 4 6 7 6 6 6 5 4 3 3 4 4 3 3 3 3 2 1 0 0 0 0 0 0 0 0 0 0 0 0 0 0 0 0
5 6 5 3 2 1 2 2 2 4 7 7 6 6 6 6 4 3 2 3 3 3 4 4 4 3 1 0 0 0 0 1 1 0 0 0 0 0 0 0 0 0 0
7 7 7 6 5 4 4 3 2 4 7 7 6 6 6 6 4 2 1 2 2 3 4 5 5 4 1 0 0 0 0 1 1 0 0 0 0 0 0 0 0 0 0
7 7 8 9 9 8 6 4 3 3 6 6 6 6 6 5 4 2 1 1 1 2 4 6 6 6 3 1 1 1 1 1 1 0 0 0 0 0 0 0 0 0 0
6 6 7 8 9 9 8 6 4 4 6 7 6 6 6 5 4 3 2 1 1 3 5 6 7 7 5 3 2 3 3 2 1 0 0 0 0 0 0 0 0 0 0
6 5 5 6 7 7 7 6 5 6 8 8 7 6 5 5 4 4 3 3 3 6 7 7 8 8 7 5 4 4 4 2 1 0 0 0 0 0 0 0 0 0 0
7 6 5 5 6 7 6 5 5 7 9 10 8 7 7 7 6 4 3 2 4 6 8 9 9 9 8 7 6 4 3 1 0 0 0 0 0 0 0 0 0 0 0
10 8 6 6 7 7 6 4 4 6 10 10 10 10 9 9 8 6 3 2 3 5 7 9 9 10 9 9 8 6 4 2 0 0 0 0 0 0 0 0 0 0 0
9 8 6 6 7 7 5 3 3 5 9 10 10 10 10 9 8 6 4 3 4 5 6 7 8 9 9 9 8 7 6 3 1 0 0 0 0 0 0 0 0 0 0
7 7 6 7 8 7 4 2 2 5 8 9 8 7 7 7 5 3 2 3 4 6 6 6 7 7 7 6 6 6 5 4 3 1 0 0 0 0 0 0 0 0 0
6 6 6 7 8 6 3 1 2 5 8 8 6 5 4 4 3 1 1 2 4 5 8 7 5 5 5 4 3 4 5 5 4 1 0 0 0 0 0 0 0 0 0

GEFSMA_con_prob3kmehi_312.txt.gz
EHI
3 3 4 4 4 4 5 4 2 2 1 1 0 0 1 3 4 4 5 6 4 2 1 0 1 2 2 1 2 4 4 2 2 3 3 3 3 2 1 0 0 0 0
3 3 3 4 4 5 7 6 4 3 3 2 1 1 3 5 5 4 4 5 5 3 2 1 1 2 2 1 2 4 5 5 4 4 5 4 3 2 1 0 0 0 0
3 3 3 4 6 8 10 9 6 5 6 6 5 5 7 8 7 5 5 5 5 4 3 2 2 3 3 3 3 5 7 8 8 8 7 6 5 4 2 0 0 0 0
3 3 4 6 8 10 10 8 7 6 8 9 8 7 8 8 7 7 6 5 4 2 3 5 6 7 7 5 4 6 9 12 13 12 10 9 8 6 4 2 1 1 0
3 4 5 6 7 8 8 6 6 8 8 8 7 6 6 6 6 6 5 4 3 2 2 5 9 10 8 6 6 8 11 14 16 16 13 12 11 9 7 5 4 2 1
3 3 4 4 4 5 5 4 5 8 8 6 5 4 4 4 4 5 4 4 4 4 3 5 8 9 8 7 7 8 10 12 15 16 16 14 13 10 8 7 6 3 2
3 3 4 4 4 5 6 6 7 8 9 8 7 6 6 5 5 6 6 5 5 6 6 7 7 7 7 7 7 7 7 9 11 14 15 14 12 10 8 7 5 3 2
3 4 5 5 5 7 10 11 11 11 11 10 9 8 8 8 7 7 7 7 6 6 7 7 8 9 8 7 8 8 9 11 12 12 13 13 11 9 7 6 4 2 2
3 4 6 7 7 9 11 13 14 14 12 11 11 11 10 9 8 8 8 7 7 6 6 6 7 9 10 11 11 10 10 11 11 11 12 12 10 8 7 6 5 3 3
4 5 7 8 8 9 10 10 12 13 13 13 13 13 12 11 9 8 8 7 7 7 6 6 6 8 10 12 13 10 7 6 5 6 7 9 9 8 6 5 5 4 4
4 5 7 7 8 8 8 8 9 10 12 13 14 14 13 13 11 8 7 7 6 6 7 7 7 7 8 10 11 9 5 2 1 1 3 4 5 5 4 4 5 5 6
5 5 5 6 6 6 6 7 7 8 11 14 17 17 16 15 13 10 8 6 4 5 7 8 8 7 7 8 9 7 3 1 0 0 1 1 2 2 2 3 4 6 6
4 4 4 5 4 4 4 6 7 7 10 15 18 19 19 18 16 13 10 6 3 3 6 7 8 8 8 8 7 4 2 1 0 0 0 0 0 0 1 2 3 5 6
4 4 5 6 6 5 6 7 7 6 7 11 14 16 19 19 17 14 10 7 4 3 4 5 6 8 8 8 7 5 4 2 0 0 0 0 0 0 0 1 1 3 3
5 5 6 7 8 7 7 8 7 6 6 8 9 11 13 15 16 14 11 9 7 4 3 3 4 5 6 7 7 7 7 4 1 0 0 0 0 0 0 0 0 1 1
8 8 7 8 8 8 7 7 6 6 6 8 9 9 10 12 13 14 13 12 9 6 3 3 3 4 6 8 8 9 8 7 5 2 0 0 0 0 0 0 0 0 0
8 7 7 7 8 8 8 8 8 8 8 9 11 11 12 13 14 15 16 15 13 9 5 3 3 5 9 11 10 10 10 11 10 5 1 0 0 0 0 0 0 0 0
5 5 6 7 9 9 10 11 11 11 11 11 11 12 14 14 15 16 16 17 15 11 7 4 3 5 9 12 11 11 12 12 11 7 3 1 0 0 0 0 0 0 0
6 7 7 8 9 11 10 10 11 13 14 14 13 13 14 15 15 15 15 15 13 11 9 6 6 6 8 11 11 11 11 11 10 8 5 2 0 0 0 0 0 0 0
9 10 10 8 8 9 8 8 9 11 14 16 15 15 13 13 12 13 14 13 12 11 10 9 8 8 10 12 11 10 10 10 10 9 8 5 2 1 1 0 0 0 0
12 11 10 9 8 7 6 7 8 9 12 16 17 16 13 11 9 10 11 13 12 11 10 10 9 10 12 13 12 10 10 10 10 10 9 8 5 4 3 1 0 0 0
12 12 11 11 11 8 5 5 6 8 11 16 19 18 15 13 10 9 10 10 9 9 9 9 9 11 13 14 13 11 10 10 10 10 10 9 7 6 5 3 1 0 0
15 15 15 15 14 10 6 4 4 7 12 16 19 20 18 15 14 13 10 8 8 9 9 10 11 12 14 15 14 12 11 11 11 12 12 10 8 8 8 5 1 0 0
18 18 18 18 17 13 8 4 4 8 14 17 19 21 20 18 16 15 13 11 11 11 10 10 11 11 11 11 12 12 13 13 13 13 13 10 9 9 8 5 2 0 0
20 19 18 18 18 16 10 5 4 9 16 19 19 19 19 17 15 13 13 14 15 14 10 9 8 7 6 5 6 10 13 13 13 14 13 11 10 9 8 5 2 0 0
20 18 16 16 18 18 13 5 4 11 18 20 19 18 16 15 13 12 13 16 17 15 10 7 6 4 3 2 4 8 12 13 13 13 12 12 11 9 7 5 2 0 0